Weather Service Report


414 
ASUS44 KEWX 230612
RWREWX
SOUTH TEXAS REGIONAL WEATHER ROUNDUP
NATIONAL WEATHER SERVICE AUSTIN/SAN ANTONIO TX
100 AM CDT THU MAR 23 2017

NOTE: "FAIR" INDICATED FEW OR NO CLOUDS BELOW 12,000 FEET WITH NO
SIGNIFICANT WEATHER AND/OR OBSTRUCTIONS TO VISIBILITY.

* - THESE STATIONS ARE NOT NWS OR FAA STATIONS...AND ARE NOT SUBJECT
    TO NWS AND FAA QUALITY CONTROL.
 
TXZ171-172-183>190-230700-
TEXAS HILL COUNTRY AND EDWARDS PLATEAU
  
CITY           SKY/WX    TMP DP  RH WIND       PRES   REMARKS
JUNCTION       CLEAR     68  61  78 SE13      30.06F                  
6HR MIN TEMP:  67; 6HR MAX TEMP:  78;                                

*LLANO         CLEAR     66  61  82 SE6       30.11S                  
BURNET         MOCLDY    66  61  84 S9G16     30.10F                  
6HR MIN TEMP:  66; 6HR MAX TEMP:  78;                                

*HORSESHOE BAY CLEAR     66  62  85 SE7       30.09S                  
6HR MIN TEMP:  66; 6HR MAX TEMP:  80;                                

*KERRVILLE     PTCLDY    64  62  92 SE9       30.10F                  
6HR MIN TEMP:  64; 6HR MAX TEMP:  76;                                

*FREDERICKSBRG PTCLDY    64  60  85 S6        30.09F                  
6HR MIN TEMP:  64; 6HR MAX TEMP:  75;                                

*ROCKSPRINGS   PTCLDY    64  63  94 S14       30.09F                  
*BOERNE STAGE  CLOUDY    64  61  88 S10G17    30.12S                  
*CASTROVILLE   CLOUDY    66  65  94 SE7       30.11S                  
HONDO          CLEAR     69  64  84 SE12      30.09S                  
6HR MIN TEMP:  69; 6HR MAX TEMP:  81;                                

*UVALDE        CLEAR     65  63  90 E7        30.08S                  
6HR MIN TEMP:  65; 6HR MAX TEMP:  78;                                

DEL RIO        CLEAR     70  61  73 E13G21    30.01S                  
6HR MIN TEMP:  70; 6HR MAX TEMP:  78;                                

LAUGHLIN AFB   CLEAR     69  64  85 SE16      30.02S                  
6HR MIN TEMP:  67; 6HR MAX TEMP:  78;                                

CARRIZO SPRGS  CLEAR     70  61  73 SE7       30.03F                  
*EAGLE PASS    PTCLDY    68  61  77 E10       30.02S                  
$$

TXZ173-191>194-202-209-217>225-228-230700-
CENTRAL AND SOUTH CENTRAL TEXAS
  
CITY           SKY/WX    TMP DP  RH WIND       PRES   REMARKS
GEORGETOWN     CLOUDY    70  61  73 S15       30.09F                  
6HR MIN TEMP:  70; 6HR MAX TEMP:  81;                                

AUSTIN/BERGSTM CLOUDY    68  65  90 S15       30.10S                  
6HR MIN TEMP:  65; 6HR MAX TEMP:  81;                                

AUSTIN/MABRY   CLOUDY    68  63  84 S8        30.11S                  
6HR MIN TEMP:  68; 6HR MAX TEMP:  79;                                

*AUSTIN/EXEC   CLOUDY    66  66 100 S8        30.11S                  
*LAGO VISTA    CLOUDY    67  63  85 MISG      30.11S                  
6HR MIN TEMP:  67; 6HR MAX TEMP:  78;                                

SAN MARCOS     CLOUDY    68  64  88 S15       30.11F                  
6HR MIN TEMP:  66; 6HR MAX TEMP:  79;                                

NEW BRAUNFELS  CLOUDY    68  64  87 S13       30.09F                  
6HR MIN TEMP:  67; 6HR MAX TEMP:  80;                                

RANDOLPH AFB   CLOUDY    66  66 100 S14       30.10S                  
6HR MIN TEMP:  65; 6HR MAX TEMP:  77;                                

PT SAN ANTONIO CLOUDY    67  64  90 SE10      30.08S                  
6HR MIN TEMP:  67; 6HR MAX TEMP:  78;                                

SAN ANTONIO    MOCLDY    67  63  87 SE10      30.10F                  
6HR MIN TEMP:  67; 6HR MAX TEMP:  79;                                

STINSON FIELD  PTCLDY    68  64  87 SE10      30.08S                  
6HR MIN TEMP:  67; 6HR MAX TEMP:  80;                                

*PLEASANTON    CLEAR     66  64  92 SE6       30.10S                  
6HR MIN TEMP:  66; 6HR MAX TEMP:  80;                                

*LA GRANGE     CLEAR     67  66  96 S6        30.10S                  
6HR MIN TEMP:  67; 6HR MAX TEMP:  80;                                

*GIDDINGS      PTCLDY    66  64  93 S6        30.12S                  
6HR MIN TEMP:  66; 6HR MAX TEMP:  79;                                

*GONZALES      CLOUDY    67  67 100 SE7       30.11S                  
6HR MIN TEMP:  67; 6HR MAX TEMP:  79;                                

$$

TXZ163>164-176>182-195>201-210>213-226-227-235-230700-
SOUTHEAST TEXAS
  
CITY           SKY/WX    TMP DP  RH WIND       PRES   REMARKS
COLLEGE STN    CLEAR     68  64  87 S12       30.12F                  
6HR MIN TEMP:  67; 6HR MAX TEMP:  81;                                

*BRYAN         CLEAR     67  65  92 S9        30.13F                  
6HR MIN TEMP:  67; 6HR MAX TEMP:  79;                                

*CALDWELL      NOT AVBL                                               
*CROCKETT      CLEAR     66  64  94 SE5       30.16S                  
*BRENHAM       CLEAR     67  65  94 SE3       30.14S                  
6HR MIN TEMP:  67; 6HR MAX TEMP:  81;                                

HUNTSVILLE     CLEAR     68  63  84 S5        30.13F                  
6HR MIN TEMP:  68; 6HR MAX TEMP:  81;                                

CONROE         CLEAR     64  63  96 SE3       30.15F                  
6HR MIN TEMP:  64; 6HR MAX TEMP:  81;                                

HOUSTON BUSH   PTCLDY    69  65  86 S7        30.14F                  
6HR MIN TEMP:  69; 6HR MAX TEMP:  82;                                

HOUSTON HOBBY  PTCLDY    66  64  93 SE5       30.14F                  
6HR MIN TEMP:  66; 6HR MAX TEMP:  76;                                

*HOUSTON SW AP FOG       62  61  97 CALM      30.15F VSB 1/2          
6HR MIN TEMP:  61; 6HR MAX TEMP:  77;                                

PEARLAND       CLEAR     69  65  86 SE3       30.16F                  
6HR MIN TEMP:  69; 6HR MAX TEMP:  78;                                

HOUSTON HOOKS  CLEAR     68  65  90 S3        30.14F                  
6HR MIN TEMP:  68; 6HR MAX TEMP:  81;                                

ELLINGTON FLD  CLEAR     68  64  88 S3        30.16F                  
SUGAR LAND     CLEAR     68  65  90 S8        30.14F                  
6HR MIN TEMP:  66; 6HR MAX TEMP:  79;                                

*HOUSTON EXEC  PTCLDY    66  64  94 S8        30.15S                  
*CLEVELAND MUN CLEAR     65  64  96 CALM      30.16F FOG              
6HR MIN TEMP:  65; 6HR MAX TEMP:  78;                                

*WHARTON       CLEAR     63  61  93 SE3       30.14F                  
6HR MIN TEMP:  63; 6HR MAX TEMP:  76;                                

*COLUMBUS      FAIR      66  64  94 SE5       30.14S                  
6HR MIN TEMP:  65; 6HR MAX TEMP:  77;                                

*EAGLE LAKE    CLEAR     66  65  99 S6        30.13S                  
6HR MIN TEMP:  66; 6HR MAX TEMP:  78;                                

$$

TXZ214>216-236>238-230700-
THE UPPER TEXAS COAST
  
CITY           SKY/WX    TMP DP  RH WIND       PRES   REMARKS
*ORANGE        CLEAR     67  66  95 S5        30.19R                  
6HR MIN TEMP:  67; 6HR MAX TEMP:  75;                                

PORT ARTHUR    FOG       64  63  96 S3        30.16S VSB 1            
6HR MIN TEMP:  64; 6HR MAX TEMP:  75;                                

GALVESTON      PTCLDY    72  67  84 S10       30.16F                  
6HR MIN TEMP:  72; 6HR MAX TEMP:  75;                                

ANGLETON       PTCLDY    68  65  90 S8        30.14F                  
6HR MIN TEMP:  66; 6HR MAX TEMP:  75;                                

*BAY CITY      CLOUDY    66  66 100 SE3       30.14S                  
PALACIOS       PTCLDY    70  66  87 SE9       30.13S                  
6HR MIN TEMP:  70; 6HR MAX TEMP:  75;                                

$$

TXZ229>234-239>247-230700-
TEXAS COASTAL BEND AND RIO GRANDE PLAINS
  
CITY           SKY/WX    TMP DP  RH WIND       PRES   REMARKS
VICTORIA       CLEAR     65  63  93 SE7       30.12F                  
6HR MIN TEMP:  65; 6HR MAX TEMP:  77;                                

*BEEVILLE      CLEAR    N/A N/A N/A SE6       30.10F                  
ROCKPORT       CLEAR     71  67  87 SE9       30.11F                  
6HR MIN TEMP:  71; 6HR MAX TEMP:  75;                                

*PORT ARANSAS  CLEAR     69  68  94 SE8       30.11S                  
6HR MIN TEMP:  69; 6HR MAX TEMP:  73;                                

*PORT LAVACA   CLEAR     66  66 100 CALM      30.13S                  
6HR MIN TEMP:  66; 6HR MAX TEMP:  75;                                

*INGLESIDE     CLEAR     71  68  91 CALM      30.11S                  
CORPUS CHRISTI CLEAR     68  67  96 SE12      30.10F                  
6HR MIN TEMP:  68; 6HR MAX TEMP:  76;                                

CORPUS NAS     CLEAR    N/A N/A N/A SE13      30.10F                  
*ROBSTOWN      CLEAR     68  68 100 CALM      30.10F                  
6HR MIN TEMP:  68; 6HR MAX TEMP:  78;                                

ALICE          CLEAR     66  65  96 SE8       30.09S                  
6HR MIN TEMP:  66; 6HR MAX TEMP:  78;                                

KINGSVILLE NAS CLEAR     68  68 100 SE8       30.09F                  
6HR MIN TEMP:  68; 6HR MAX TEMP:  77;                                

COTULLA        CLEAR     70  63  78 SE14      30.06S                  
6HR MIN TEMP:  70; 6HR MAX TEMP:  84;                                

*FAITH RANCH   CLOUDY    73  61  64 SE10      30.03F                  
LAREDO         CLEAR     71  62  73 SE14      30.06S                  
6HR MIN TEMP:  71; 6HR MAX TEMP:  85;                                

$$

TXZ248>255-230700-
DEEP SOUTH TEXAS
  
CITY           SKY/WX    TMP DP  RH WIND       PRES   REMARKS
BROWNSVILLE    CLEAR     69  66  90 SE6       30.11R                  
6HR MIN TEMP:  69; 6HR MAX TEMP:  77;                                

PORT ISABEL    CLEAR     71  66  84 SE10      30.10S                  
6HR MIN T


416 
ASUS44 KEWX 230612
RWRTX 
SOUTH TEXAS REGIONAL WEATHER ROUNDUP
NATIONAL WEATHER SERVICE AUSTIN/SAN ANTONIO TX
100 AM CDT THU MAR 23 2017

NOTE: "FAIR" INDICATED FEW OR NO CLOUDS BELOW 12,000 FEET WITH NO
SIGNIFICANT WEATHER AND/OR OBSTRUCTIONS TO VISIBILITY.

* - THESE STATIONS ARE NOT NWS OR FAA STATIONS...AND ARE NOT SUBJECT
    TO NWS AND FAA QUALITY CONTROL.
 
TXZ171-172-183>190-230700-
TEXAS HILL COUNTRY AND EDWARDS PLATEAU
  
CITY           SKY/WX    TMP DP  RH WIND       PRES   REMARKS
JUNCTION       CLEAR     68  61  78 SE13      30.06F                  
6HR MIN TEMP:  67; 6HR MAX TEMP:  78;                                

*LLANO         CLEAR     66  61  82 SE6       30.11S                  
BURNET         MOCLDY    66  61  84 S9G16     30.10F                  
6HR MIN TEMP:  66; 6HR MAX TEMP:  78;                                

*HORSESHOE BAY CLEAR     66  62  85 SE7       30.09S                  
6HR MIN TEMP:  66; 6HR MAX TEMP:  80;                                

*KERRVILLE     PTCLDY    64  62  92 SE9       30.10F                  
6HR MIN TEMP:  64; 6HR MAX TEMP:  76;                                

*FREDERICKSBRG PTCLDY    64  60  85 S6        30.09F                  
6HR MIN TEMP:  64; 6HR MAX TEMP:  75;                                

*ROCKSPRINGS   PTCLDY    64  63  94 S14       30.09F                  
*BOERNE STAGE  CLOUDY    64  61  88 S10G17    30.12S                  
*CASTROVILLE   CLOUDY    66  65  94 SE7       30.11S                  
HONDO          CLEAR     69  64  84 SE12      30.09S                  
6HR MIN TEMP:  69; 6HR MAX TEMP:  81;                                

*UVALDE        CLEAR     65  63  90 E7        30.08S                  
6HR MIN TEMP:  65; 6HR MAX TEMP:  78;                                

DEL RIO        CLEAR     70  61  73 E13G21    30.01S                  
6HR MIN TEMP:  70; 6HR MAX TEMP:  78;                                

LAUGHLIN AFB   CLEAR     69  64  85 SE16      30.02S                  
6HR MIN TEMP:  67; 6HR MAX TEMP:  78;                                

CARRIZO SPRGS  CLEAR     70  61  73 SE7       30.03F                  
*EAGLE PASS    PTCLDY    68  61  77 E10       30.02S                  
$$

TXZ173-191>194-202-209-217>225-228-230700-
CENTRAL AND SOUTH CENTRAL TEXAS
  
CITY           SKY/WX    TMP DP  RH WIND       PRES   REMARKS
GEORGETOWN     CLOUDY    70  61  73 S15       30.09F                  
6HR MIN TEMP:  70; 6HR MAX TEMP:  81;                                

AUSTIN/BERGSTM CLOUDY    68  65  90 S15       30.10S                  
6HR MIN TEMP:  65; 6HR MAX TEMP:  81;                                

AUSTIN/MABRY   CLOUDY    68  63  84 S8        30.11S                  
6HR MIN TEMP:  68; 6HR MAX TEMP:  79;                                

*AUSTIN/EXEC   CLOUDY    66  66 100 S8        30.11S                  
*LAGO VISTA    CLOUDY    67  63  85 MISG      30.11S                  
6HR MIN TEMP:  67; 6HR MAX TEMP:  78;                                

SAN MARCOS     CLOUDY    68  64  88 S15       30.11F                  
6HR MIN TEMP:  66; 6HR MAX TEMP:  79;                                

NEW BRAUNFELS  CLOUDY    68  64  87 S13       30.09F                  
6HR MIN TEMP:  67; 6HR MAX TEMP:  80;                                

RANDOLPH AFB   CLOUDY    66  66 100 S14       30.10S                  
6HR MIN TEMP:  65; 6HR MAX TEMP:  77;                                

PT SAN ANTONIO CLOUDY    67  64  90 SE10      30.08S                  
6HR MIN TEMP:  67; 6HR MAX TEMP:  78;                                

SAN ANTONIO    MOCLDY    67  63  87 SE10      30.10F                  
6HR MIN TEMP:  67; 6HR MAX TEMP:  79;                                

STINSON FIELD  PTCLDY    68  64  87 SE10      30.08S                  
6HR MIN TEMP:  67; 6HR MAX TEMP:  80;                                

*PLEASANTON    CLEAR     66  64  92 SE6       30.10S                  
6HR MIN TEMP:  66; 6HR MAX TEMP:  80;                                

*LA GRANGE     CLEAR     67  66  96 S6        30.10S                  
6HR MIN TEMP:  67; 6HR MAX TEMP:  80;                                

*GIDDINGS      PTCLDY    66  64  93 S6        30.12S                  
6HR MIN TEMP:  66; 6HR MAX TEMP:  79;                                

*GONZALES      CLOUDY    67  67 100 SE7       30.11S                  
6HR MIN TEMP:  67; 6HR MAX TEMP:  79;                                

$$

TXZ163>164-176>182-195>201-210>213-226-227-235-230700-
SOUTHEAST TEXAS
  
CITY           SKY/WX    TMP DP  RH WIND       PRES   REMARKS
COLLEGE STN    CLEAR     68  64  87 S12       30.12F                  
6HR MIN TEMP:  67; 6HR MAX TEMP:  81;                                

*BRYAN         CLEAR     67  65  92 S9        30.13F                  
6HR MIN TEMP:  67; 6HR MAX TEMP:  79;                                

*CALDWELL      NOT AVBL                                               
*CROCKETT      CLEAR     66  64  94 SE5       30.16S                  
*BRENHAM       CLEAR     67  65  94 SE3       30.14S                  
6HR MIN TEMP:  67; 6HR MAX TEMP:  81;                                

HUNTSVILLE     CLEAR     68  63  84 S5        30.13F                  
6HR MIN TEMP:  68; 6HR MAX TEMP:  81;                                

CONROE         CLEAR     64  63  96 SE3       30.15F                  
6HR MIN TEMP:  64; 6HR MAX TEMP:  81;                                

HOUSTON BUSH   PTCLDY    69  65  86 S7        30.14F                  
6HR MIN TEMP:  69; 6HR MAX TEMP:  82;                                

HOUSTON HOBBY  PTCLDY    66  64  93 SE5       30.14F                  
6HR MIN TEMP:  66; 6HR MAX TEMP:  76;                                

*HOUSTON SW AP FOG       62  61  97 CALM      30.15F VSB 1/2          
6HR MIN TEMP:  61; 6HR MAX TEMP:  77;                                

PEARLAND       CLEAR     69  65  86 SE3       30.16F                  
6HR MIN TEMP:  69; 6HR MAX TEMP:  78;                                

HOUSTON HOOKS  CLEAR     68  65  90 S3        30.14F                  
6HR MIN TEMP:  68; 6HR MAX TEMP:  81;                                

ELLINGTON FLD  CLEAR     68  64  88 S3        30.16F                  
SUGAR LAND     CLEAR     68  65  90 S8        30.14F                  
6HR MIN TEMP:  66; 6HR MAX TEMP:  79;                                

*HOUSTON EXEC  PTCLDY    66  64  94 S8        30.15S                  
*CLEVELAND MUN CLEAR     65  64  96 CALM      30.16F FOG              
6HR MIN TEMP:  65; 6HR MAX TEMP:  78;                                

*WHARTON       CLEAR     63  61  93 SE3       30.14F                  
6HR MIN TEMP:  63; 6HR MAX TEMP:  76;                                

*COLUMBUS      FAIR      66  64  94 SE5       30.14S                  
6HR MIN TEMP:  65; 6HR MAX TEMP:  77;                                

*EAGLE LAKE    CLEAR     66  65  99 S6        30.13S                  
6HR MIN TEMP:  66; 6HR MAX TEMP:  78;                                

$$

TXZ214>216-236>238-230700-
THE UPPER TEXAS COAST
  
CITY           SKY/WX    TMP DP  RH WIND       PRES   REMARKS
*ORANGE        CLEAR     67  66  95 S5        30.19R                  
6HR MIN TEMP:  67; 6HR MAX TEMP:  75;                                

PORT ARTHUR    FOG       64  63  96 S3        30.16S VSB 1            
6HR MIN TEMP:  64; 6HR MAX TEMP:  75;                                

GALVESTON      PTCLDY    72  67  84 S10       30.16F                  
6HR MIN TEMP:  72; 6HR MAX TEMP:  75;                                

ANGLETON       PTCLDY    68  65  90 S8        30.14F                  
6HR MIN TEMP:  66; 6HR MAX TEMP:  75;                                

*BAY CITY      CLOUDY    66  66 100 SE3       30.14S                  
PALACIOS       PTCLDY    70  66  87 SE9       30.13S                  
6HR MIN TEMP:  70; 6HR MAX TEMP:  75;                                

$$

TXZ229>234-239>247-230700-
TEXAS COASTAL BEND AND RIO GRANDE PLAINS
  
CITY           SKY/WX    TMP DP  RH WIND       PRES   REMARKS
VICTORIA       CLEAR     65  63  93 SE7       30.12F                  
6HR MIN TEMP:  65; 6HR MAX TEMP:  77;                                

*BEEVILLE      CLEAR    N/A N/A N/A SE6       30.10F                  
ROCKPORT       CLEAR     71  67  87 SE9       30.11F                  
6HR MIN TEMP:  71; 6HR MAX TEMP:  75;                                

*PORT ARANSAS  CLEAR     69  68  94 SE8       30.11S                  
6HR MIN TEMP:  69; 6HR MAX TEMP:  73;                                

*PORT LAVACA   CLEAR     66  66 100 CALM      30.13S                  
6HR MIN TEMP:  66; 6HR MAX TEMP:  75;                                

*INGLESIDE     CLEAR     71  68  91 CALM      30.11S                  
CORPUS CHRISTI CLEAR     68  67  96 SE12      30.10F                  
6HR MIN TEMP:  68; 6HR MAX TEMP:  76;                                

CORPUS NAS     CLEAR    N/A N/A N/A SE13      30.10F                  
*ROBSTOWN      CLEAR     68  68 100 CALM      30.10F                  
6HR MIN TEMP:  68; 6HR MAX TEMP:  78;                                

ALICE          CLEAR     66  65  96 SE8       30.09S                  
6HR MIN TEMP:  66; 6HR MAX TEMP:  78;                                

KINGSVILLE NAS CLEAR     68  68 100 SE8       30.09F                  
6HR MIN TEMP:  68; 6HR MAX TEMP:  77;                                

COTULLA        CLEAR     70  63  78 SE14      30.06S                  
6HR MIN TEMP:  70; 6HR MAX TEMP:  84;                                

*FAITH RANCH   CLOUDY    73  61  64 SE10      30.03F                  
LAREDO         CLEAR     71  62  73 SE14      30.06S                  
6HR MIN TEMP:  71; 6HR MAX TEMP:  85;                                

$$

TXZ248>255-230700-
DEEP SOUTH TEXAS
  
CITY           SKY/WX    TMP DP  RH WIND       PRES   REMARKS
BROWNSVILLE    CLEAR     69  66  90 SE6       30.11R                  
6HR MIN TEMP:  69; 6HR MAX TEMP:  77;                                

PORT ISABEL    CLEAR     71  66  84 SE10      30.10S                  
6HR MIN T

Return to Home page


Western Regional Climate Center, wrcc@dri.edu